Weather History for Vancouver, WA

Change the Weather History Date:

Tuesday, April 9, 2013

  Actual Average Record
Temperature  
Mean Temperature 46 °F 51 °F  
Max Temperature 57 °F 60 °F 82 °F (1904)
Min Temperature 34 °F 42 °F 31 °F (1927)
Degree Days  
Heating Degree Days 19    
Month to date heating degree days 112  
Since 1 July heating degree days 3675  
Cooling Degree Days 0    
Month to date cooling degree days 0  
Year to date cooling degree days 0  
Moisture  
Dew Point 40 °F    
Average Humidity 79    
Maximum Humidity 100    
Minimum Humidity 57    
Precipitation  
Precipitation 0.00 in 0.10 in 1.22 in (1971)
Month to date precipitation 1.22 0.92  
Year to date precipitation 7.36 14.02  
Snow  
Snow 0.00 in - - ()
Month to date snowfall 0.0  
Snow Depth 0.00 in    
Sea Level Pressure  
Sea Level Pressure 30.33 in    
Wind  
Wind Speed 1 mph (ESE)    
Max Wind Speed 7 mph    
Max Gust Speed 9 mph    
Visibility 9 miles    
Events      
T = Trace of Precipitation, MM = Missing Value Source: NWS Daily Summary

Daily Weather History Graph

Daily Weather History Graph

Search for Another Location

Airport:

Trip Planner

Search our weather history database for the weather conditions in past years. The results will help you decide how hot, cold, wet, or windy it might be!

Date:

Astronomy

Apr. 09, 2013 Rise Set
Actual Time 6:35 AM PDT 7:49 PM PDT
Civil Twilight 6:04 AM PDT 8:20 PM PDT
Nautical Twilight 5:27 AM PDT 8:57 PM PDT
Astronomical Twilight 4:48 AM PDT 9:36 PM PDT
Moon 6:01 AM PDT (4/9) 7:31 PM PDT (4/9)
Length of Visible Light 14h 15m
Length of Day
13h 14m
Waning Crescent, 0% of the Moon is Illuminated
Apr 9
Waning Crescent
Apr 10
New
Apr 18
First Quarter
Apr 25
Full
May 2
Last Quarter

Hourly Weather History & Observations

Time (PDT) Temp. Dew Point Humidity Pressure Visibility Wind Dir Wind Speed Gust Speed Precip Events Conditions
12:53 AM 39.9 °F 37.9 °F 93% 30.31 in 10.0 mi Calm Calm - N/A   Scattered Clouds
1:53 AM 39.0 °F 36.0 °F 89% 30.32 in 10.0 mi Calm Calm - N/A   Clear
2:53 AM 39.0 °F 37.0 °F 93% 30.32 in 10.0 mi Calm Calm - N/A   Clear
3:53 AM 35.1 °F 34.0 °F 96% 30.32 in 1.8 mi Calm Calm - N/A   Clear
4:01 AM 35.6 °F 33.8 °F 93% 30.32 in 3.0 mi Calm Calm - N/A   Clear
4:53 AM 37.9 °F 36.0 °F 93% 30.34 in 10.0 mi Calm Calm - N/A   Overcast
5:53 AM 37.9 °F 37.0 °F 97% 30.35 in 10.0 mi Calm Calm - N/A   Overcast
6:31 AM 39.2 °F 37.4 °F 93% 30.35 in 10.0 mi Calm Calm - N/A   Mostly Cloudy
6:48 AM 39.2 °F 37.4 °F 93% 30.35 in 10.0 mi Calm Calm - N/A   Mostly Cloudy
6:53 AM 39.0 °F 37.0 °F 93% 30.35 in 10.0 mi Calm Calm - N/A   Mostly Cloudy
7:53 AM 43.0 °F 41.0 °F 93% 30.35 in 10.0 mi Calm Calm - N/A   Overcast
8:53 AM 44.1 °F 41.0 °F 89% 30.36 in 6.0 mi Calm Calm - N/A   Overcast
9:17 AM 44.6 °F 41.0 °F 87% 30.37 in 7.0 mi Calm Calm - N/A   Overcast
9:53 AM 46.0 °F 42.1 °F 86% 30.38 in 8.0 mi Calm Calm - N/A   Overcast
10:12 AM 46.4 °F 42.8 °F 87% 30.37 in 8.0 mi Calm Calm - N/A   Overcast
10:34 AM 46.4 °F 42.8 °F 87% 30.38 in 8.0 mi Calm Calm - N/A   Mostly Cloudy
10:53 AM 48.0 °F 42.1 °F 80% 30.38 in 9.0 mi Calm Calm - N/A   Overcast
11:53 AM 50.0 °F 42.1 °F 74% 30.37 in 10.0 mi Calm Calm - N/A   Overcast
12:53 PM 52.0 °F 42.1 °F 69% 30.36 in 10.0 mi Calm Calm - N/A   Overcast
1:53 PM 53.1 °F 42.1 °F 66% 30.35 in 10.0 mi SE 4.6 mph - N/A   Overcast
2:53 PM 55.0 °F 42.1 °F 62% 30.34 in 10.0 mi Calm Calm - N/A   Overcast
3:53 PM 57.0 °F 42.1 °F 57% 30.33 in 10.0 mi Calm Calm - N/A   Overcast
4:53 PM 55.9 °F 41.0 °F 57% 30.32 in 10.0 mi Calm Calm - N/A   Overcast
5:53 PM 55.9 °F 41.0 °F 57% 30.31 in 10.0 mi Calm Calm - N/A   Overcast
6:53 PM 55.9 °F 41.0 °F 57% 30.29 in 10.0 mi SE 3.5 mph - N/A   Overcast
7:53 PM 55.0 °F 42.1 °F 62% 30.28 in 10.0 mi ESE 4.6 mph - N/A   Overcast
8:53 PM 54.0 °F 42.1 °F 64% 30.28 in 10.0 mi ESE 3.5 mph - N/A   Overcast
9:53 PM 55.0 °F 42.1 °F 62% 30.28 in 10.0 mi Calm Calm - N/A   Overcast
10:53 PM 54.0 °F 42.1 °F 64% 30.27 in 10.0 mi East 3.5 mph - N/A   Overcast
11:53 PM 53.1 °F 44.1 °F 71% 30.25 in 10.0 mi ESE 3.5 mph - N/A   Overcast